Location: San Gennaro Vesuviano
(40.8833°N, 14.5333°E)
Time: 10:38:09
(UTC+00:00)

Terra - Pass Details

Date: 22 April 2021
Orbit: 701 x 703 km, 98.2° (Epoch: 10 May)

Event Time Altitude Azimuth Distance (km) Brightness Sun altitude
Exits shadow 19:24:59 10° 66° (ENE) 2,150 4.0 -17.1°
Maximum altitude 19:25:32 11° 59° (ENE) 2,137 4.1 -17.2°
Drops below altitude 10° 19:26:28 10° 48° (NE) 2,175 4.2 -17.3°
Sets 19:30:47 0° 10° (N) 3,100 5.5 -18.0°
